Location: Haliburton Scout Reserve
(45.0900°N, 78.3200°W)
Time: 03:35:40
(UTC-04:00)

PCSat - Pass Details

Date: 25 May 2022
Orbit: 784 x 795 km, 67.1° (Epoch: 24 June)

Event Time Altitude Azimuth Distance (km) Brightness Sun altitude
Rises 02:17:09 0° 332° (NNW) 3,305 13.4 -22.2°
Reaches altitude 10° 02:19:43 10° 339° (NNW) 2,372 12.7 -22.1°
Maximum altitude 02:24:51 41° 50° (NE) 1,148 10.8 -21.8°
Drops below altitude 10° 02:29:57 10° 120° (ESE) 2,358 11.9 -21.5°
Sets 02:32:29 0° 127° (SE) 3,282 12.6 -21.3°
